Location: Champs
(48.8539°N, 2.6040°E)
Time: 10:42:58
(UTC+00:00)

Cosmos 2056 Rocket - Visible Passes

Search period start: 29 May 2022 00:00
Search period end: 08 June 2022 00:00
Orbit: 741 x 801 km, 74.0° (Epoch: 28 May)

Date Brightness Start Highest point End Pass type
(mag) Time Alt. Az. Time Alt. Az. Time Alt. Az.
29 May 5.5 01:49:09 10° SE 01:52:57 21° E 01:56:49 10° NE visible
30 May 5.9 01:14:50 10° ESE 01:17:07 13° E 01:19:25 10° ENE visible
30 May 3.6 02:53:08 10° SSW 02:58:21 85° ESE 03:03:41 10° NNE visible
31 May 4.1 02:17:18 11° S 02:22:13 54° ESE 02:27:24 10° NNE visible
01 Jun 4.7 01:41:56 12° SSE 01:46:12 34° ESE 01:50:57 10° NE visible
02 Jun 5.3 01:06:32 11° SE 01:10:15 22° E 01:14:15 10° NE visible
02 Jun 3.8 02:46:51 11° SW 02:51:55 60° WNW 02:57:13 10° NNE visible
03 Jun 5.8 00:31:54 10° ESE 00:34:25 14° E 00:36:57 10° ENE visible
03 Jun 3.5 02:11:25 16° SSW 02:15:41 88° ESE 02:21:03 10° NNE visible
04 Jun 3.9 01:35:57 19° S 01:39:33 57° ESE 01:44:46 10° NNE visible
05 Jun 4.6 01:00:27 19° SSE 01:03:30 36° ESE 01:08:20 10° NE visible
05 Jun 4.4 02:40:46 10° SW 02:45:36 38° WNW 02:50:37 10° N visible
06 Jun 5.2 00:24:55 16° SE 00:27:34 23° E 00:31:40 10° NE visible
06 Jun 3.8 02:05:14 17° SW 02:09:15 58° WNW 02:14:34 10° NNE visible
06 Jun 5.6 23:49:21 11° ESE 23:51:43 14° E 23:54:27 10° ENE visible
07 Jun 3.5 01:29:40 23° SSW 01:33:00 89° WNW 01:38:24 10° NNE visible
